Starlink 3739

operational
NORAD ID: 52266 Int'l Des: 2022-041 Owner: SPXS Country: US Constellation: starlink
LEOCIRCULAR

Starlink 3739について

説明を読み込み中...

リアルタイム位置

3D地球を読み込み中...

次回通過

高度履歴

Altitude vs Time

uPlot chart will show altitude changes over time

軌道要素

1 52266U 22041F 25297.44506294 -.00000992 00000-0 -44224-4 0 9991
2 52266 53.2185 0.7478 0001368 89.0340 271.0809 15.08842868193791
Epoch: Oct 24, 2025 • Age: 12 hours

現在のステータス

高度 539.6 km
速度 7.60 km/s
衛星直下点 14.71°N, 155.86°E
打ち上げ日 Apr 21, 2022
運用期間 3.5 years
タイプ internet

技術仕様

分類 Payload
質量 297.00 kg
乾燥質量 275.00 kg
総質量 297.00 kg
長さ 0.20 m
直径 2.80 m
スパン 9.00 m
形状 Box + pan
製造者 SPXS
バスタイプ Starlink
フェーズステータス In Orbit
所有者/国 SPXS/US

大規模コンステレーション

Loading constellations...